Location: Basses Si�yes
(44.0835°N, 6.2037°E)
Time: 04:24:05
(UTC+00:00)

Cosmos 1602 - Pass Details

Date: 27 February 2020
Orbit: 514 x 535 km, 82.5° (Epoch: 02 April)

Event Time Altitude Azimuth Distance (km) Brightness Sun altitude
Rises 18:57:29 0° 197° (SSW) 2,652 7.4 -18.2°
Reaches altitude 10° 18:59:39 10° 201° (SSW) 1,764 6.6 -18.6°
Maximum altitude 19:03:27 56° 280° (W) 630 4.4 -19.3°
Drops below altitude 10° 19:07:16 10° 360° (N) 1,766 6.5 -20.0°
Sets 19:09:27 0° 5° (N) 2,656 7.4 -20.4°
